Погода в Бигадиче

Турция     39°23′34″N   28°07′52″E
темп.,
°C
ветер,
м/с
пор.,
м/с
влажн.,
%
обл.,
%
осадки,
мм/ч
давл.,
гПа
погр.,
м
29 мая, вс
вс2900:00+19вюв22610 0.0 101118
03:00+18вюв32570 0.0 101122
06:00+18вюв22595 0.0 101023
09:00+27ю123828 0.0 1010435
12:00+33ю562022 0.0 10092299
15:00+35ююз571958 0.0 10073377
18:00+32юз8101956 0.0 10071716
21:00+22в11305 0.0 100911
30 мая, пн
пн3000:00+20юв22294 0.0 101016
03:00+19вюв33410 0.0 100929
06:00+17вюв22540 0.0 101013
09:00+25юз13360 0.0 1011542
12:00+29юз69233 0.0 10112445
15:00+30юз57240 0.0 10102818
18:00+29з55270 0.0 10102343
21:00+20сз11590 0.0 101213
31 мая, вт
вт3100:00+18в11680 0.0 101411
03:00+17всв11700 0.0 101411
06:00+16в11710 0.0 101411
09:00+23ссз224915 0.0 1014601
12:00+28ссз543748 0.0 10132000
15:00+29с753535 0.0 10122203
18:00+26с66430 0.1 10121377
21:00+20с22700 0.1 101420
1 июня, ср
ср100:00+16ссв11840 0.0 101511
03:00+15св11890 0.0 101511
06:00+14с11923 0.0 101512
09:00+22с24581 0.0 1014753
12:00+28с55380 0.0 10131581
15:00+29с66360 0.0 10121796
18:00+26с66450 0.0 10121050
21:00+18с22720 0.0 101425
2 июня, чт
чт200:00+15ссз11890 0.1 101610
03:00+14св11890 0.1 101511
06:00+14с11936 0.0 101515
09:00+21ссз23602 0.0 1014634
12:00+29ссз45355 0.0 10131440
15:00+31ссз75326 0.0 10111557
18:00+25св344720 0.4 1012451
21:00+20с227077 0.4 101425